• In Hungary
  • List of Countries
  • For 7 days
  • Water Temperature
  • Satellite Maps
  • Weather Map
  • News
  • Weather Widgets
  • user-avatar
    Login

    Hourly Weather Escaldes-Engordany

    Today, 22 November, Wednesday

    Time Temperature Precipitation Wind Pressure Humidity
    00:00 +5°C° 0 mm 1 mps 638 mmHg 53%
    01:00 +4°C° 0 mm 1 mps 638 mmHg 52%
    02:00 +4°C° 0 mm 1 mps 638 mmHg 51%
    03:00 +4°C° 0 mm 1 mps 637 mmHg 50%
    04:00 +4°C° 0 mm 1 mps 637 mmHg 47%
    05:00 +4°C° 0 mm 1 mps 637 mmHg 45%
    06:00 +4°C° 0 mm 1 mps 637 mmHg 43%
    07:00 +5°C° 0 mm 1 mps 637 mmHg 41%
    08:00 +7°C° 0 mm 1 mps 638 mmHg 39%
    09:00 +9°C° 0 mm 1 mps 638 mmHg 38%
    10:00 +9°C° 0 mm 2 mps 639 mmHg 36%
    11:00 +12°C° 0 mm 2 mps 639 mmHg 34%
    12:00 +13°C° 0 mm 2 mps 639 mmHg 32%
    13:00 +12°C° 0 mm 2 mps 638 mmHg 34%
    14:00 +12°C° 0 mm 2 mps 638 mmHg 37%
    15:00 +10°C° 0 mm 2 mps 637 mmHg 39%
    16:00 +8°C° 0 mm 2 mps 637 mmHg 43%
    17:00 +5°C° 0 mm 2 mps 636 mmHg 47%
    18:00 +4°C° 0 mm 1 mps 635 mmHg 51%
    19:00 +4°C° 0 mm 1 mps 635 mmHg 48%
    20:00 +4°C° 0 mm 1 mps 635 mmHg 45%
    21:00 +4°C° 0 mm 1 mps 635 mmHg 42%
    22:00 +3°C° 0 mm 1 mps 635 mmHg 41%
    23:00 +3°C° 0 mm 1 mps 635 mmHg 40%

    Tomorrow, 23 November, Thursday

    Time Temperature Precipitation Wind Pressure Humidity
    00:00 +3°C° 0 mm 1 mps 635 mmHg 39%
    01:00 +3°C° 0 mm 1 mps 635 mmHg 39%
    02:00 +3°C° 0 mm 1 mps 635 mmHg 38%
    03:00 +4°C° 0 mm 1 mps 635 mmHg 38%
    04:00 +4°C° 0 mm 1 mps 636 mmHg 39%
    05:00 +4°C° 0 mm 1 mps 636 mmHg 40%
    06:00 +4°C° 0 mm 1 mps 636 mmHg 41%
    07:00 +6°C° 0 mm 1 mps 637 mmHg 41%
    08:00 +7°C° 0 mm 1 mps 638 mmHg 41%
    09:00 +9°C° 0 mm 1 mps 639 mmHg 41%
    10:00 +10°C° 0 mm 1 mps 640 mmHg 39%
    11:00 +12°C° 0 mm 1 mps 640 mmHg 37%
    12:00 +13°C° 0 mm 2 mps 641 mmHg 34%
    13:00 +13°C° 0 mm 2 mps 640 mmHg 38%
    14:00 +12°C° 0 mm 2 mps 640 mmHg 43%
    15:00 +12°C° 0 mm 2 mps 640 mmHg 47%
    16:00 +9°C° 0 mm 2 mps 640 mmHg 53%
    17:00 +7°C° 0 mm 1 mps 639 mmHg 59%
    18:00 +5°C° 0 mm 1 mps 639 mmHg 65%
    19:00 +5°C° 0 mm 1 mps 639 mmHg 65%
    20:00 +5°C° 0 mm 1 mps 639 mmHg 65%
    21:00 +5°C° 0 mm 1 mps 639 mmHg 64%
    22:00 +5°C° 0 mm 1 mps 639 mmHg 64%
    23:00 +4°C° 0 mm 2 mps 639 mmHg 64%

    Day after tomorrow, 24 November, Friday

    Time Temperature Precipitation Wind Pressure Humidity
    00:00 +4°C° 0 mm 2 mps 639 mmHg 64%
    01:00 +4°C° 0 mm 2 mps 639 mmHg 62%
    02:00 +5°C° 0 mm 2 mps 639 mmHg 60%
    03:00 +5°C° 0 mm 2 mps 639 mmHg 58%
    04:00 +5°C° 0 mm 2 mps 639 mmHg 59%
    05:00 +5°C° 0 mm 2 mps 639 mmHg 60%
    06:00 +5°C° 0 mm 2 mps 638 mmHg 61%
    07:00 +6°C° 0 mm 2 mps 639 mmHg 59%
    08:00 +7°C° 0 mm 2 mps 639 mmHg 57%
    09:00 +8°C° 0 mm 2 mps 640 mmHg 56%
    10:00 +9°C° 0 mm 2 mps 640 mmHg 54%
    11:00 +10°C° 0 mm 2 mps 640 mmHg 52%
    12:00 +11°C° 0 mm 3 mps 641 mmHg 51%
    13:00 +10°C° 0 mm 2 mps 640 mmHg 53%
    14:00 +10°C° 0 mm 2 mps 640 mmHg 56%
    15:00 +9°C° 0 mm 2 mps 639 mmHg 58%
    16:00 +8°C° 0 mm 2 mps 639 mmHg 63%
    17:00 +7°C° 0 mm 2 mps 638 mmHg 68%
    18:00 +6°C° 0 mm 2 mps 638 mmHg 73%
    19:00 +5°C° 0 mm 2 mps 638 mmHg 76%
    20:00 +5°C° 0 mm 2 mps 638 mmHg 79%
    21:00 +4°C° 0 mm 2 mps 638 mmHg 82%
    22:00 +4°C° 0 mm 2 mps 638 mmHg 80%
    23:00 +4°C° 0 mm 2 mps 638 mmHg 78%

    25 November, Saturday

    Time Temperature Precipitation Wind Pressure Humidity
    00:00 +4°C° 0 mm 2 mps 637 mmHg 77%
    01:00 +4°C° 0 mm 2 mps 637 mmHg 73%
    02:00 +4°C° 0 mm 2 mps 637 mmHg 70%
    03:00 +4°C° 0 mm 2 mps 637 mmHg 67%
    04:00 +4°C° 0 mm 2 mps 637 mmHg 68%
    05:00 +5°C° 0 mm 1 mps 637 mmHg 70%
    06:00 +4°C° 0 mm 1 mps 638 mmHg 72%
    07:00 +4°C° 0.1 mm 2 mps 639 mmHg 73%
    08:00 +5°C° 0.1 mm 2 mps 639 mmHg 75%
    09:00 +4°C° 0.1 mm 3 mps 640 mmHg 76%
    10:00 +5°C° 0.1 mm 3 mps 640 mmHg 75%
    11:00 +6°C° 0.1 mm 2 mps 641 mmHg 73%
    12:00 +6°C° 0.1 mm 2 mps 641 mmHg 71%
    13:00 +6°C° 0 mm 2 mps 641 mmHg 71%
    14:00 +6°C° 0 mm 2 mps 641 mmHg 71%
    15:00 +6°C° 0 mm 2 mps 641 mmHg 71%
    16:00 +5°C° 0 mm 2 mps 641 mmHg 76%
    17:00 +4°C° 0 mm 2 mps 641 mmHg 81%
    18:00 +3°C° 0 mm 2 mps 641 mmHg 86%
    19:00 +2°C° 0 mm 2 mps 641 mmHg 87%
    20:00 +3°C° 0 mm 1 mps 642 mmHg 88%
    21:00 +3°C° 0 mm 1 mps 642 mmHg 88%
    22:00 +2°C° 0 mm 1 mps 642 mmHg 89%
    23:00 +2°C° 0 mm 1 mps 642 mmHg 89%

    26 November, Sunday

    Time Temperature Precipitation Wind Pressure Humidity
    00:00 +2°C° 0 mm 1 mps 642 mmHg 90%
    01:00 +1°C° 0 mm 1 mps 641 mmHg 90%
    02:00 +1°C° 0 mm 1 mps 641 mmHg 89%
    03:00 +1°C° 0 mm 1 mps 641 mmHg 89%
    04:00 +1°C° 0 mm 1 mps 641 mmHg 89%
    05:00 -1°C° 0 mm 2 mps 641 mmHg 88%
    06:00 -2°C° 0 mm 2 mps 642 mmHg 88%
    07:00 -1°C° 0 mm 2 mps 642 mmHg 83%
    08:00 -1°C° 0 mm 2 mps 643 mmHg 77%
    09:00 +1°C° 0 mm 2 mps 643 mmHg 72%
    10:00 +2°C° 0 mm 2 mps 644 mmHg 64%
    11:00 +3°C° 0 mm 2 mps 644 mmHg 57%
    12:00 +4°C° 0 mm 2 mps 644 mmHg 50%
    13:00 +4°C° 0 mm 2 mps 644 mmHg 50%
    14:00 +3°C° 0 mm 2 mps 644 mmHg 51%
    15:00 +3°C° 0 mm 2 mps 643 mmHg 52%
    16:00 +1°C° 0 mm 2 mps 643 mmHg 60%
    17:00 -1°C° 0 mm 2 mps 643 mmHg 69%
    18:00 -3°C° 0 mm 2 mps 643 mmHg 78%
    19:00 -3°C° 0 mm 2 mps 643 mmHg 76%
    20:00 -3°C° 0 mm 2 mps 643 mmHg 75%
    21:00 -4°C° 0 mm 2 mps 643 mmHg 73%
    22:00 -4°C° 0 mm 2 mps 643 mmHg 72%
    23:00 -4°C° 0 mm 2 mps 643 mmHg 72%

    27 November, Monday

    Time Temperature Precipitation Wind Pressure Humidity
    00:00 -4°C° 0 mm 2 mps 643 mmHg 72%
    01:00 -4°C° 0 mm 2 mps 643 mmHg 70%
    02:00 -2°C° 0 mm 1 mps 643 mmHg 68%
    03:00 -2°C° 0 mm 1 mps 643 mmHg 66%
    04:00 -2°C° 0 mm 1 mps 643 mmHg 63%
    05:00 -2°C° 0 mm 1 mps 642 mmHg 61%
    06:00 -2°C° 0 mm 1 mps 642 mmHg 59%
    07:00 -1°C° 0 mm 1 mps 643 mmHg 53%
    08:00 +1°C° 0 mm 1 mps 643 mmHg 48%
    09:00 +3°C° 0 mm 1 mps 644 mmHg 42%
    10:00 +4°C° 0 mm 1 mps 644 mmHg 41%
    11:00 +4°C° 0 mm 2 mps 644 mmHg 39%
    12:00 +6°C° 0 mm 2 mps 643 mmHg 38%
    13:00 +5°C° 0 mm 2 mps 643 mmHg 40%
    14:00 +5°C° 0 mm 2 mps 642 mmHg 41%
    15:00 +4°C° 0 mm 2 mps 641 mmHg 43%
    16:00 +3°C° 0 mm 2 mps 640 mmHg 48%
    17:00 +1°C° 0 mm 2 mps 639 mmHg 53%
    18:00 0°C° 0 mm 1 mps 638 mmHg 57%
    19:00 0°C° 0 mm 1 mps 638 mmHg 59%
    20:00 +1°C° 0 mm 1 mps 638 mmHg 60%
    21:00 +1°C° 0 mm 1 mps 638 mmHg 61%
    22:00 +1°C° 0 mm 1 mps 637 mmHg 65%
    23:00 +1°C° 0 mm 1 mps 637 mmHg 69%
    Show more